Flight Track Log - Related Links

Times and Time Zones

All times are in EDT time to prevent confusion due to time zone crossing. See the SWA36 flight status page for this flight to view local times or setup timezone preferences in your user account.

Time Position Orientation Groundspeed Altitude Reporting Facility
EDT Latitude Longitude Course Direction KTS MPH feet Rate Location/Type
Sat 04:48:08 PM 29.6356 -95.2458 83° East 165 190 1,800  Level Houston Center
Sat 04:49:09 PM 29.6658 -95.1869 59° Northeast 225 259 4,100 2,557 Climbing Houston Center
Sat 04:50:10 PM 29.6900 -95.1069 71° East 281 323 7,000 3,148 Climbing Houston Center
Sat 04:51:11 PM 29.7161 -95.0075 73° East 306 352 10,500 1,967 Climbing Houston Center
Sat 04:52:12 PM 29.7489 -94.9094 69° East 356 410 11,000 234 Climbing Houston Center
Sat 04:53:00 PM 30.2411 -95.4049 350° North  Level FlightAware Approximate
Sat 04:53:19 PM 29.8350 -94.8675 23° Northeast 330 380 11,000  Level Houston Center
Sat 04:54:15 PM 29.9186 -94.8833 351° North 316 364 11,000 974 Level Houston Center
Sat 04:55:16 PM 29.9844 -94.9572 316° Northwest 331 381 12,900 1,721 Climbing Houston Center
Sat 04:56:24 PM 30.0542 -95.0256 320° Northwest 339 390 14,700 2,215 Climbing Houston Center
Sat 04:57:26 PM 30.1322 -95.1017 320° Northwest 358 412 17,700 3,000 Climbing Houston Center
Sat 04:58:28 PM 30.2242 -95.1922 320° Northwest 363 418 20,900 2,488 Climbing Houston Center
Sat 04:59:29 PM 30.3017 -95.2669 320° Northwest 364 419 22,800 2,000 Climbing Houston Center
Sat 05:00:31 PM 30.3800 -95.3461 319° Northwest 374 430 25,000 1,935 Climbing Houston Center
Sat 05:01:33 PM 30.4603 -95.4228 321° Northwest 375 432 26,800 1,756 Climbing Houston Center
Sat 05:02:34 PM 30.5681 -95.4550 346° North 401 461 28,600 1,512 Climbing Houston Center
Sat 05:03:36 PM 30.6933 -95.4872 348° North 410 472 29,900 1,258 Climbing Houston Center
Sat 05:04:38 PM 30.8092 -95.5172 347° North 422 486 31,200 1,016 Climbing Houston Center
Sat 05:05:40 PM 30.9258 -95.5478 347° North 426 490 32,000 390 Climbing Houston Center
Sat 05:06:41 PM 31.0450 -95.5794 347° North 435 501 32,000  Level Houston Center
Sat 05:07:43 PM 31.1661 -95.6114 347° North 438 504 32,000 -179 Level Houston Center
Sat 05:08:55 PM 31.3242 -95.6503 348° North 440 506 31,600 -682 Descending Fort Worth Center
Sat 05:09:55 PM 31.4294 -95.7067 335° Northwest 426 490 30,500 -1,450 Descending Fort Worth Center
Sat 05:10:55 PM 31.5264 -95.7756 329° Northwest 404 465 28,700 -2,400 Descending Fort Worth Center
Sat 05:11:55 PM 31.6231 -95.8422 330° Northwest 404 465 25,700 -2,800 Descending Fort Worth Center
Sat 05:12:55 PM 31.7117 -95.9017 330° Northwest 404 465 23,100 -2,800 Descending Fort Worth Center
Sat 05:13:55 PM 31.8189 -95.9708 331° Northwest 410 472 20,100 -2,850 Descending Fort Worth Center
Sat 05:14:55 PM 31.9156 -96.0233 335° Northwest 391 450 17,400 -2,550 Descending Fort Worth Center
Sat 05:15:55 PM 32.0017 -96.0881 327° Northwest 386 444 15,000 -2,450 Descending Fort Worth Center
Sat 05:16:55 PM 32.0881 -96.1481 330° Northwest 368 423 12,500 -2,300 Descending Fort Worth Center
Sat 05:17:55 PM 32.1658 -96.2083 327° Northwest 354 407 10,400 -1,250 Descending Fort Worth Center
Sat 05:18:55 PM 32.2436 -96.2517 335° Northwest 343 395 10,000 -250 Descending Fort Worth Center
Sat 05:19:55 PM 32.3381 -96.3119 332° Northwest 343 395 9,900 -200 Descending Fort Worth Center
Sat 05:20:55 PM 32.4031 -96.3506 333° Northwest 312 359 9,600 -450 Descending Fort Worth Center
Sat 05:21:55 PM 32.4661 -96.4211 317° Northwest 283 326 9,000 -300 Descending Fort Worth Center
Sat 05:22:55 PM 32.5125 -96.4747 316° Northwest 268 308 9,000 -750 Level Fort Worth Center
Sat 05:23:55 PM 32.5714 -96.5358 319° Northwest 262 302 7,500 -1,500 Descending Fort Worth Center
Sat 05:24:55 PM 32.6197 -96.5897 317° Northwest 257 296 6,000 -1,650 Descending Fort Worth Center
Sat 05:25:55 PM 32.6786 -96.6533 318° Northwest 257 296 4,200 -1,683 Descending Fort Worth Center
Sat 05:26:17 PM 32.7000 -96.6667 332° Northwest 264 304 3,700 -1,244 Descending Dallas / Fort Worth TRACON
Sat 05:27:17 PM 32.7500 -96.7333 312° West 247 284 2,500 -900 Descending Dallas / Fort Worth TRACON
Sat 05:28:17 PM 32.7833 -96.7833 308° West 197 227 1,900 -700 Descending Dallas / Fort Worth TRACON
Sat 05:29:17 PM 32.8167 -96.8167 320° Northwest 141 162 1,100 -800 Descending Dallas / Fort Worth TRACON
Sat 05:35:00 PM 32.8471 -96.8518 320° Northwest  Level Estimated
Sat 05:42:00 PM 32.8471 -96.8518 145° Southeast  Level Estimated
Sat 05:43:00 PM 32.8471 -96.8518 145° Southeast  Level Estimated
Sat 05:44:00 PM 32.8471 -96.8518 145° Southeast  Level Estimated

Login

Don't have an account? Register now (free) for customized features, flight alerts, and more!